{"data":{"norad_id":67810,"intl_designator":"2026-032P","name":"STARLINK-36807","alt_names":[],"object_type":"PAYLOAD","status":"ACTIVE","operator":null,"country":"US","launch_date":"2026-02-15","launch_site_code":"AFWTR","launch_vehicle":null,"mission":null,"orbit_class":"UNKNOWN","rcs_meters":null,"size_class":null,"mass_kg":null,"dimensions":null,"purposes":["comms"],"wikipedia_slug":null,"has_3d_model":false,"image_url":null,"decayed_at":null,"tle_current":{"epoch":"2026-09-19T18:22:40.402560Z","epoch_age_seconds":129964,"freshness":"FRESH","line1":"1 67810U 26032P   26262.76574540  .00013390  00000+0  41630-3 0  9993","line2":"2 67810  97.2836  89.1985 0001839  89.7107 270.4347 15.33448684 34709","mean_motion":15.33448684,"eccentricity":0.0001839,"inclination_deg":97.2836,"raan_deg":89.1985,"arg_perigee_deg":89.7107,"mean_anomaly_deg":270.4347,"bstar":0.0004163,"rev_number":3470,"period_min":93.905979053943,"perigee_km":464.27366273963,"apogee_km":466.79076427635,"semimajor_km":6843.669213508,"source":"CELESTRAK","updated_at":"2026-09-20T09:00:43.664388Z"}}}